timestamp,wind_dir_avg,wind_spd_avg,wind_spd_max_dir,wind_spd_gust,battery_voltage,lat,long
2023-02-19 00:04:00+00:00,315.0,0.01,1.0,0.0,12.33,47.59359,-54.27349
2023-02-19 00:14:00+00:00,315.0,0.01,1.0,0.0,12.25,47.59359,-54.27349
2023-02-19 00:24:00+00:00,315.0,0.01,1.0,0.0,12.25,47.59359,-54.27349
2023-02-19 00:34:00+00:00,315.0,0.01,1.0,0.0,12.25,47.59359,-54.27349
2023-02-19 00:44:00+00:00,315.0,0.01,1.0,0.0,12.25,47.59359,-54.27349
2023-02-19 00:54:00+00:00,315.0,0.01,1.0,0.0,12.25,47.59359,-54.27349
2023-02-19 01:04:00+00:00,315.0,0.01,1.0,0.0,12.25,47.59359,-54.27349
2023-02-19 01:14:00+00:00,315.0,0.01,1.0,0.0,12.17,47.59359,-54.27349
2023-02-19 01:24:00+00:00,315.0,0.01,1.0,0.0,12.17,47.59359,-54.27349
2023-02-19 01:34:00+00:00,315.0,0.01,1.0,0.0,12.17,47.59359,-54.27349
2023-02-19 01:44:00+00:00,315.0,0.01,1.0,0.0,12.17,47.59359,-54.27349
2023-02-19 01:54:00+00:00,315.0,0.01,1.0,0.0,12.17,47.59359,-54.27349
2023-02-19 02:04:00+00:00,315.0,0.01,1.0,0.0,12.17,47.59359,-54.27349
2023-02-19 02:14:00+00:00,315.0,0.01,1.0,0.0,12.17,47.59359,-54.27349
2023-02-19 02:24:00+00:00,315.0,0.01,1.0,0.0,12.17,47.59359,-54.27349
2023-02-19 02:34:00+00:00,315.0,0.01,1.0,0.0,12.17,47.59359,-54.27349
2023-02-19 02:44:00+00:00,315.0,0.01,1.0,0.0,12.17,47.59359,-54.27349
2023-02-19 02:54:00+00:00,315.0,0.01,1.0,0.0,12.17,47.59359,-54.27349
2023-02-19 03:04:00+00:00,315.0,0.01,1.0,0.0,12.17,47.59359,-54.27349
2023-02-19 03:14:00+00:00,315.0,0.01,1.0,0.0,12.17,47.59359,-54.27349
2023-02-19 03:24:00+00:00,315.0,0.01,1.0,0.0,12.17,47.59359,-54.27349
2023-02-19 03:34:00+00:00,315.0,0.01,1.0,0.0,12.17,47.59359,-54.27349
2023-02-19 03:44:00+00:00,315.0,0.01,1.0,0.0,12.17,47.59359,-54.27349
2023-02-19 03:54:00+00:00,315.0,0.01,1.0,0.0,12.17,47.59359,-54.27349
2023-02-19 04:04:00+00:00,315.0,0.01,1.0,0.0,12.17,47.59359,-54.27349
2023-02-19 04:14:00+00:00,315.0,0.01,1.0,0.0,12.09,47.59359,-54.27349
2023-02-19 04:24:00+00:00,315.0,0.01,1.0,0.0,12.09,47.59359,-54.27349
2023-02-19 04:34:00+00:00,315.0,0.01,1.0,0.0,12.09,47.59359,-54.27349
2023-02-19 04:44:00+00:00,315.0,0.01,1.0,0.0,12.09,47.59359,-54.27349
2023-02-19 04:54:00+00:00,315.0,0.01,1.0,0.0,12.09,47.59359,-54.27349
2023-02-19 05:04:00+00:00,315.0,0.01,1.0,0.0,12.09,47.59359,-54.27349
2023-02-19 05:14:00+00:00,315.0,0.01,1.0,0.0,12.09,47.59359,-54.27349
2023-02-19 05:24:00+00:00,315.0,0.01,1.0,0.0,12.09,47.59359,-54.27349
2023-02-19 05:34:00+00:00,315.0,0.01,1.0,0.0,12.09,47.59359,-54.27349
2023-02-19 05:44:00+00:00,315.0,0.01,1.0,0.0,12.09,47.59359,-54.27349
2023-02-19 05:54:00+00:00,315.0,0.01,1.0,0.0,12.09,47.59359,-54.27349
2023-02-19 06:04:00+00:00,315.0,0.01,1.0,0.0,12.09,47.59359,-54.27349
2023-02-19 06:14:00+00:00,315.0,0.01,1.0,0.0,12.09,47.59359,-54.27349
2023-02-19 06:24:00+00:00,315.0,0.01,1.0,0.0,12.09,47.59359,-54.27349
2023-02-19 06:34:00+00:00,315.0,0.01,1.0,0.0,12.09,47.59359,-54.27349
2023-02-19 06:44:00+00:00,315.0,0.01,1.0,0.0,12.09,47.59359,-54.27349
2023-02-19 06:54:00+00:00,315.0,0.01,1.0,0.0,12.09,47.59359,-54.27349
2023-02-19 07:04:00+00:00,315.0,0.01,1.0,0.0,12.09,47.59359,-54.27349
2023-02-19 07:14:01+00:00,315.0,0.01,1.0,0.0,12.09,47.59359,-54.27349
2023-02-19 07:24:01+00:00,315.0,0.01,1.0,0.0,12.09,47.59359,-54.27349
2023-02-19 07:34:01+00:00,315.0,0.01,1.0,0.0,12.09,47.59359,-54.27349
2023-02-19 07:44:01+00:00,315.0,0.01,1.0,0.0,12.09,47.59359,-54.27349
2023-02-19 07:54:01+00:00,315.0,0.01,1.0,0.0,12.09,47.59359,-54.27349
2023-02-19 08:04:01+00:00,315.0,0.01,1.0,0.0,12.09,47.59359,-54.27349
2023-02-19 08:14:00+00:00,315.0,0.01,1.0,0.0,12.01,47.59359,-54.27349
2023-02-19 08:24:00+00:00,315.0,0.01,1.0,0.0,12.01,47.59359,-54.27349
2023-02-19 08:34:00+00:00,315.0,0.01,1.0,0.0,12.01,47.59359,-54.27349
2023-02-19 08:44:00+00:00,315.0,0.01,1.0,0.0,12.01,47.59359,-54.27349
2023-02-19 08:54:00+00:00,315.0,0.01,1.0,0.0,12.01,47.59359,-54.27349
2023-02-19 09:04:00+00:00,315.0,0.01,1.0,0.0,12.01,47.59359,-54.27349
2023-02-19 09:14:00+00:00,315.0,0.01,1.0,0.0,12.01,47.59359,-54.27349
2023-02-19 09:24:00+00:00,315.0,0.01,1.0,0.0,12.01,47.59359,-54.27349
2023-02-19 09:34:00+00:00,315.0,0.01,1.0,0.0,12.01,47.59359,-54.27349
2023-02-19 09:44:00+00:00,315.0,0.01,1.0,0.0,12.01,47.59359,-54.27349
2023-02-19 09:54:00+00:00,315.0,0.01,1.0,0.0,12.01,47.59359,-54.27349
2023-02-19 10:04:00+00:00,315.0,0.01,1.0,0.0,12.01,47.59359,-54.27349
2023-02-19 10:14:00+00:00,315.0,0.01,1.0,0.0,12.01,47.59359,-54.27349
2023-02-19 10:24:00+00:00,315.0,0.01,1.0,0.0,12.01,47.59359,-54.27349
2023-02-19 10:34:00+00:00,315.0,0.01,1.0,0.0,12.01,47.59359,-54.27349
2023-02-19 10:44:00+00:00,315.0,0.01,1.0,0.0,12.01,47.59359,-54.27349
2023-02-19 10:54:00+00:00,315.0,0.01,1.0,0.0,12.01,47.59359,-54.27349
2023-02-19 11:04:00+00:00,315.0,0.01,1.0,0.0,12.01,47.59359,-54.27349
2023-02-19 11:14:00+00:00,315.0,0.01,1.0,0.0,12.01,47.59359,-54.27349
2023-02-19 11:24:00+00:00,315.0,0.01,1.0,0.0,12.01,47.59359,-54.27349
2023-02-19 11:34:00+00:00,315.0,0.01,1.0,0.0,12.01,47.59359,-54.27349
2023-02-19 11:44:00+00:00,315.0,0.01,1.0,0.0,12.01,47.59359,-54.27349
2023-02-19 11:54:00+00:00,315.0,0.01,1.0,0.0,12.01,47.59359,-54.27349
2023-02-19 12:04:00+00:00,315.0,0.01,1.0,0.0,12.01,47.59359,-54.27349
2023-02-19 12:14:00+00:00,315.0,0.01,1.0,0.0,12.73,47.59359,-54.27349
2023-02-19 12:24:00+00:00,315.0,0.01,1.0,0.0,12.73,47.59359,-54.27349
2023-02-19 12:34:00+00:00,315.0,0.01,1.0,0.0,12.73,47.59359,-54.27349
2023-02-19 12:44:00+00:00,315.0,0.01,1.0,0.0,12.73,47.59359,-54.27349
2023-02-19 12:54:00+00:00,315.0,0.01,1.0,0.0,12.73,47.59359,-54.27349
2023-02-19 13:04:00+00:00,315.0,0.01,1.0,0.0,12.73,47.59359,-54.27349
2023-02-19 13:14:01+00:00,315.0,0.01,1.0,0.0,13.44,47.59359,-54.27349
2023-02-19 13:24:01+00:00,315.0,0.01,1.0,0.0,13.44,47.59359,-54.27349
2023-02-19 13:34:01+00:00,315.0,0.01,1.0,0.0,13.44,47.59359,-54.27349
2023-02-19 13:44:01+00:00,315.0,0.01,1.0,0.0,13.44,47.59359,-54.27349
2023-02-19 13:54:01+00:00,315.0,0.01,1.0,0.0,13.44,47.59359,-54.27349
2023-02-19 14:04:01+00:00,315.0,0.01,1.0,0.0,13.44,47.59359,-54.27349
2023-02-19 15:14:01+00:00,315.0,0.01,1.0,0.0,13.6,47.59359,-54.27349
2023-02-19 15:24:01+00:00,315.0,0.01,1.0,0.0,13.6,47.59359,-54.27349
2023-02-19 15:34:01+00:00,315.0,0.01,1.0,0.0,13.6,47.59359,-54.27349
2023-02-19 15:44:01+00:00,315.0,0.01,1.0,0.0,13.6,47.59359,-54.27349
2023-02-19 15:54:01+00:00,315.0,0.01,1.0,0.0,13.6,47.59359,-54.27349
2023-02-19 16:04:01+00:00,315.0,0.01,1.0,0.0,13.6,47.59359,-54.27349
2023-02-19 16:14:00+00:00,315.0,0.01,1.0,0.0,13.68,47.59359,-54.27349
2023-02-19 16:24:00+00:00,315.0,0.01,1.0,0.0,13.68,47.59359,-54.27349
2023-02-19 16:34:00+00:00,315.0,0.01,1.0,0.0,13.68,47.59359,-54.27349
2023-02-19 16:44:00+00:00,315.0,0.01,1.0,0.0,13.68,47.59359,-54.27349
2023-02-19 16:54:00+00:00,315.0,0.01,1.0,0.0,13.68,47.59359,-54.27349
2023-02-19 17:04:00+00:00,315.0,0.01,1.0,0.0,13.68,47.59359,-54.27349
2023-02-19 17:14:00+00:00,315.0,0.01,1.0,0.0,13.84,47.59359,-54.27349
2023-02-19 17:24:00+00:00,315.0,0.01,1.0,0.0,13.84,47.59359,-54.27349
2023-02-19 17:34:00+00:00,315.0,0.01,1.0,0.0,13.84,47.59359,-54.27349
2023-02-19 17:44:00+00:00,315.0,0.01,1.0,0.0,13.84,47.59359,-54.27349
2023-02-19 17:54:00+00:00,315.0,0.01,1.0,0.0,13.84,47.59359,-54.27349
2023-02-19 18:04:00+00:00,315.0,0.01,1.0,0.0,13.84,47.59359,-54.27349
2023-02-19 18:14:00+00:00,315.0,0.01,1.0,0.0,13.76,47.59359,-54.27349
2023-02-19 18:24:00+00:00,315.0,0.01,1.0,0.0,13.76,47.59359,-54.27349
2023-02-19 18:34:00+00:00,315.0,0.01,1.0,0.0,13.76,47.59359,-54.27349
2023-02-19 18:44:00+00:00,315.0,0.01,1.0,0.0,13.76,47.59359,-54.27349
2023-02-19 18:54:00+00:00,315.0,0.01,1.0,0.0,13.76,47.59359,-54.27349
2023-02-19 19:04:00+00:00,315.0,0.01,1.0,0.0,13.76,47.59359,-54.27349
2023-02-19 19:14:00+00:00,315.0,0.01,1.0,0.0,14.48,47.59359,-54.27349
2023-02-19 19:24:00+00:00,315.0,0.01,1.0,0.0,14.48,47.59359,-54.27349
2023-02-19 19:34:00+00:00,315.0,0.01,1.0,0.0,14.48,47.59359,-54.27349
2023-02-19 19:44:00+00:00,307.0,4.76,304.0,6.0,14.48,47.59359,-54.27349
2023-02-19 19:54:00+00:00,301.0,5.1,307.0,5.92,14.48,47.59359,-54.27349
2023-02-19 20:04:00+00:00,287.0,4.62,284.0,5.19,14.48,47.59359,-54.27349
2023-02-19 20:14:00+00:00,274.0,5.38,267.0,6.49,13.6,47.59359,-54.27349
2023-02-19 20:24:00+00:00,282.0,5.28,282.0,6.75,13.6,47.59359,-54.27349
2023-02-19 20:34:00+00:00,289.0,5.98,287.0,6.92,13.6,47.59359,-54.27349
2023-02-19 20:44:00+00:00,271.0,4.76,269.0,5.58,13.6,47.59359,-54.27349
2023-02-19 20:54:00+00:00,280.0,5.28,276.0,6.05,13.6,47.59359,-54.27349
2023-02-19 21:04:00+00:00,279.0,5.82,278.0,8.05,13.6,47.59359,-54.27349
2023-02-19 21:14:00+00:00,274.0,5.58,274.0,6.67,13.21,47.59359,-54.27349
2023-02-19 21:24:00+00:00,281.0,5.44,286.0,6.46,13.21,47.59359,-54.27349
2023-02-19 21:34:00+00:00,260.0,4.85,270.0,5.42,13.21,47.59359,-54.27349
2023-02-19 21:44:00+00:00,263.0,4.62,266.0,5.9,13.21,47.59359,-54.27349
2023-02-19 21:54:00+00:00,262.0,5.12,271.0,6.02,13.21,47.59359,-54.27349
2023-02-19 22:04:00+00:00,265.0,5.83,265.0,6.82,13.21,47.59359,-54.27349
2023-02-19 22:14:00+00:00,262.0,5.75,268.0,6.3,12.41,47.59359,-54.27349
2023-02-19 22:24:00+00:00,268.0,5.37,271.0,6.26,12.41,47.59359,-54.27349
2023-02-19 22:34:00+00:00,270.0,6.69,275.0,7.47,12.41,47.59359,-54.27349
2023-02-19 22:44:00+00:00,262.0,6.45,263.0,7.43,12.41,47.59359,-54.27349
2023-02-19 22:54:00+00:00,272.0,6.21,282.0,7.31,12.41,47.59359,-54.27349
2023-02-19 23:04:00+00:00,269.0,5.76,265.0,6.96,12.41,47.59359,-54.27349
2023-02-19 23:14:00+00:00,271.0,5.56,269.0,6.35,12.33,47.59359,-54.27349
2023-02-19 23:24:00+00:00,274.0,6.0,282.0,7.14,12.33,47.59359,-54.27349
2023-02-19 23:34:00+00:00,272.0,5.53,273.0,6.77,12.33,47.59359,-54.27349
2023-02-19 23:44:00+00:00,273.0,4.52,272.0,4.93,12.33,47.59359,-54.27349
2023-02-19 23:54:00+00:00,282.0,5.33,285.0,5.96,12.33,47.59359,-54.27349
